064  
ASUS44 KLCH 131510  
RWRLCH  
REGIONAL WEATHER ROUNDUP  
NATIONAL WEATHER SERVICE LAKE CHARLES LA  
1000 AM CDT SAT JUL 13 2024  
 
NOTE: "FAIR" INDICATES FEW OR NO CLOUDS BELOW 12,000 FEET WITH NO  
SIGNIFICANT WEATHER AND/OR S TO VISIBILITY
.  
 
ACROSS SOUTHEAST TEXAS  
 
CITY SKY/WX TMP DP RH WIND PRES REMARKS
 
BEAUMONT CLOUDY 82 79 90 N5 30.17F  
BEAUMONT CITY DRIZZLE 80 76 90 NE6 30.16F  
ORANGE CLOUDY 84 78 82 CALM 30.20F  
JASPER PTSUNNY 82 75 78 CALM N/A  

 
 
ACROSS CENTRAL LOUISIANA  
 
CITY SKY/WX TMP DP RH WIND PRES REMARKS
 
LEESVILLE PTSUNNY 85 78 77 CALM 30.19S  
FULLERTON NOT AVBL  
ALEXANDRIA INT PTSUNNY 82 77 84 W3 30.19S  
ESLER FIELD NOT AVBL  
DERIDDER PTSUNNY 86 79 78 VRB3 30.21S  
OAKDALE MOSUNNY 86 75 70 CALM 30.20R  
OPELOUSAS SUNNY 85 76 73 CALM 30.20S  

 
 
ACROSS SOUTHWEST AND SOUTH CENTRAL LOUISIANA  
 
CITY SKY/WX TMP DP RH WIND PRES REMARKS
 
DEQUINCY PTSUNNY 84 75 74 CALM 30.20F  
SULPHUR PTSUNNY 87 77 72 NW5 30.20S  
LAKE CHARLES PTSUNNY 87 75 67 W3 30.19S  
CHENNAULT INT PTSUNNY 88 75 66 W6 30.19S  
JENNINGS MOSUNNY 86 76 73 NW6 30.20S  
LAFAYETTE SUNNY 90 75 61 VRB5 30.19R HX 100  
NEW IBERIA SUNNY 87 76 69 CALM 30.19S  
ABBEVILLE SUNNY 88 79 74 CALM 30.18S HX 103  
PATTERSON SUNNY N/A N/A N/A CALM 30.20S  
SALT POINT NOT AVBL  

 
 
SELECTED SITES ACROSS THE REGION  
 
CITY SKY/WX TMP DP RH WIND PRES REMARKS
 
HOUSTON BUSH CLOUDY 80 73 79 CALM 30.17F  
HOUSTON HOBBY CLOUDY 80 73 79 CALM 30.17S  
GALVESTON CLOUDY 81 77 88 CALM 30.19R  
COLLEGE STAT PTSUNNY 80 75 84 S3 30.19S  
CONROE NOT AVBL  
HUNTSVILLE CLOUDY 77 76 96 S5 30.20R  
LUFKIN CLOUDY 82 75 79 CALM 30.20F  
SHREVEPORT PTSUNNY 88 75 66 VRB3 30.19F  
MONROE MOSUNNY 87 75 67 VRB3 30.20S  
NATCHEZ MS MOSUNNY 86 72 62 W3 30.21R  
BATON ROUGE SUNNY 89 76 65 W6 30.19R HX 100  
N.O. INTL ARPT MOSUNNY 88 76 67 W3 30.19S  
SLIDELL SUNNY 90 77 65 CALM 30.18S HX 103  

 
 
MARINE REPORTS  
 
STATION/POSITION TIME SKY/WX TEMP WIND PRES VSBY
 
AIR SEA DIR/SP/G  
(UTC) (F) (DEG/KT/KT) (MB) (MI)  
BUOY 30 S HIGH I 1440 82 86 140/ 2/ 4 1021.3R  
SEA RIM ST PARK NOT AVBL  
PORT ARTHUR 1424 83 85 20/ 3/ 4 1020.9  
TEXAS POINT 1424 85 87 300/ 1/ 2 1020.5  
CALCASIEU PASS 1424 86 89 190/ 2/ 4 1022.5  
LK CHARLES BEACH 1424 86 1022.8  
MARSH ISLAND NOT AVBL  
FRESH WATER LOCK 1424 87 88 210/ 3/ 5 1026.2  
AMERADA PASS 1424 85 88 10/ 1/ 4 1022.9  

 
 
 
CLICK HERE TO GO TO PREVIOUS BULLETINS.

The Nexlab LA Page
The Nexlab TX Page Main Text Page